Lapse_Rate
6.8 6.9 6.0 5.4 6.2 7.5 8.1 8.3 8.0 8.3 8.2 8.7 9.0 9.2 9.6 9.5 9.5 9.7 9.6 5.4 3.4 3.3 4.6 5.3 5.8 5.8 5.8 5.7 5.9 5.8 6.1 6.0 5.6 5.1 4.8 4.9 4.7 4.7 5.4 5.8 5.7 4.9 5.0
5.5 6.2 6.8 6.2 6.5 6.2 6.6 7.0 6.9 7.4 7.2 6.4 7.3 8.4 9.1 9.4 9.5 9.5 9.6 8.6 3.9 2.6 3.7 4.5 5.2 5.9 6.0 5.9 5.8 5.3 5.2 6.2 5.6 5.6 5.0 5.0 5.0 5.3 5.4 5.8 5.6 5.1 5.2
2.5 5.2 7.5 7.3 7.2 6.6 6.1 6.1 6.7 6.8 6.4 6.1 6.6 6.5 7.1 7.7 8.9 9.3 9.4 9.5 8.1 3.2 2.7 3.6 4.3 4.8 5.5 6.0 6.2 5.9 5.6 6.0 5.8 5.5 5.5 5.2 5.5 6.2 5.9 5.2 5.7 5.2 4.9
2.9 3.8 3.4 3.6 3.1 3.1 3.2 5.7 6.3 6.5 6.0 5.3 5.4 5.9 6.4 6.7 7.4 8.3 8.2 8.7 9.4 9.6 4.5 3.1 3.2 3.9 4.6 5.4 6.1 5.9 6.0 6.4 6.6 5.8 5.6 5.5 5.3 5.6 5.7 5.3 5.0 5.3 5.0
3.7 4.6 6.2 6.1 5.1 4.1 4.1 3.5 4.7 5.9 6.2 6.1 6.2 6.0 5.9 5.4 6.2 5.7 7.0 7.4 7.5 8.3 9.1 4.5 3.3 3.3 3.8 4.5 5.2 5.7 6.0 6.2 5.9 5.8 6.0 5.6 5.4 5.3 5.6 5.3 4.9 5.3 4.9
3.6 4.7 6.7 5.9 5.4 7.5 7.7 6.3 5.0 5.1 4.8 5.6 5.6 5.5 5.6 5.8 6.2 5.8 5.5 6.7 7.0 7.3 7.0 6.8 4.1 4.3 2.7 3.2 4.3 5.3 5.4 5.7 5.8 5.6 5.4 5.8 5.7 5.2 5.2 5.3 5.0 5.1 5.0
2.9 4.4 6.8 6.6 6.4 6.8 8.7 7.8 7.8 8.3 7.8 6.9 5.5 5.3 5.5 5.7 5.1 3.6 3.6 3.6 5.6 8.3 6.0 6.6 5.3 6.6 6.7 2.4 3.1 3.9 5.4 6.0 5.9 5.4 5.2 5.3 5.4 5.2 5.2 5.0 5.0 5.3 5.1
3.1 3.0 2.5 2.6 2.6 3.0 3.9 5.1 7.0 8.7 9.2 8.3 6.3 5.4 5.6 5.4 5.4 4.4 3.2 3.6 5.3 7.3 7.1 8.1 5.6 5.6 6.4 9.4 6.7 2.1 4.1 5.2 5.8 5.6 5.0 4.8 5.0 5.1 5.2 4.8 4.5 5.1 5.2
2.6 1.8 1.4 1.8 2.2 1.9 2.3 3.0 3.2 3.9 8.7 9.2 7.6 8.0 6.7 7.0 8.3 6.6 3.9 4.3 5.6 7.1 8.5 6.4 6.6 6.2 6.4 7.8 9.2 4.9 2.1 3.2 5.0 5.6 4.9 4.7 4.5 4.8 5.1 4.8 4.6 4.9 5.0
1.8 1.1 1.0 1.5 2.3 1.8 2.2 2.7 3.5 4.0 4.8 6.3 9.0 6.3 8.2 8.8 7.8 7.7 8.6 8.2 8.1 8.9 8.6 9.1 8.7 7.3 7.7 7.6 8.6 8.6 2.9 1.2 3.3 4.8 5.0 5.2 4.7 4.3 4.8 5.0 4.6 4.8 5.0
2.7 1.7 1.9 1.8 2.5 2.2 2.0 3.1 3.8 3.7 4.4 5.8 7.0 8.5 7.8 8.7 8.0 8.2 8.0 8.3 9.0 9.4 9.8 9.9 9.4 9.1 9.7 8.1 9.2 8.1 3.0 0.4 0.7 3.0 4.3 5.0 4.9 4.8 4.6 5.0 4.8 5.0 5.2
3.5 3.4 2.5 3.6 2.8 2.8 2.1 2.8 3.9 3.9 4.0 4.8 5.2 6.3 7.4 7.5 8.6 8.4 8.6 8.5 8.6 9.0 9.4 9.6 9.6 9.4 10.5 10.3 8.2 7.4 4.2 1.4 -0.4 1.3 2.8 3.9 4.9 5.0 4.7 4.9 5.0 5.1 5.1
3.0 3.7 4.0 2.9 3.2 2.2 2.6 3.7 3.3 3.7 3.9 4.4 4.8 5.8 6.5 7.0 7.4 8.4 7.9 8.5 8.9 9.0 9.4 9.7 9.6 9.7 9.8 9.8 9.8 6.2 3.7 0.3 -0.4 -0.1 1.3 2.8 4.0 4.6 4.9 4.9 5.0 5.3 5.4
4.3 3.8 3.8 5.0 5.0 4.8 4.6 4.5 4.4 4.7 5.1 4.9 4.1 4.0 5.3 6.3 6.9 7.8 8.8 8.6 8.5 8.7 9.0 8.7 9.5 9.7 10.1 9.8 9.4 4.8 7.9 -0.4 -0.9 -1.0 0.1 1.3 2.2 3.2 3.9 4.1 4.4 5.0 5.2
4.2 5.1 4.9 4.7 4.5 4.5 4.4 4.1 4.0 4.3 4.4 4.4 4.4 3.8 4.1 4.6 5.2 6.5 6.7 9.0 8.6 8.2 8.4 9.2 8.0 9.1 9.7 10.1 9.4 9.2 7.9 4.0 -1.3 -2.1 -1.3 0.3 0.8 1.6 2.8 2.9 3.2 3.9 4.4
4.7 4.5 4.8 5.0 4.5 4.4 3.9 3.6 3.5 3.9 3.8 3.7 3.8 4.2 3.9 4.4 4.0 4.8 6.3 7.2 8.9 8.9 8.7 9.1 9.2 7.8 9.6 10.0 9.5 8.9 8.8 4.7 -0.9 -2.2 -2.3 -1.6 -0.9 0.1 1.4 1.9 1.8 2.4 3.1
5.5 5.6 5.2 5.4 5.1 4.7 4.3 4.3 4.0 3.6 3.7 3.9 3.6 3.5 4.2 2.9 2.3 1.6 3.9 6.5 8.1 7.4 7.7 8.8 9.3 9.5 9.0 9.2 9.5 9.0 8.6 8.5 8.5 -1.9 -2.3 -2.3 -2.4 -1.5 0.0 0.7 1.1 1.2 2.0
6.8 5.6 5.2 5.1 5.3 4.9 5.0 4.9 5.0 5.0 4.2 3.8 3.7 3.9 2.7 2.1 0.9 0.2 -0.1 1.0 2.2 7.0 7.1 7.3 7.1 8.9 8.9 8.8 9.0 8.4 8.2 7.0 7.9 2.4 -2.0 -2.5 -2.8 -2.5 -1.9 -0.8 0.2 0.2 0.7
5.9 4.9 4.6 4.5 4.8 4.6 4.4 5.2 5.5 5.6 5.2 5.0 4.2 4.2 3.3 2.1 0.8 0.0 -0.2 0.4 0.8 1.5 2.5 6.4 6.8 6.6 6.6 7.6 8.1 8.6 7.8 7.8 5.6 3.1 -1.9 -3.0 -2.5 -2.6 -2.5 -1.3 -0.9 -0.5 -0.4
7.0 5.9 6.0 6.3 6.5 5.2 3.8 3.8 5.3 5.7 5.7 5.7 5.0 4.4 3.9 2.8 2.2 0.8 1.1 0.4 -0.1 -0.3 0.6 2.4 6.4 8.1 7.3 7.0 8.3 8.4 6.5 5.9 5.8 4.3 1.5 0.2 -1.5 -2.2 -2.4 -1.3 -1.7 -1.4 -1.2
7.8 8.6 8.7 9.1 9.1 6.0 4.2 2.9 6.2 6.2 4.5 3.8 4.5 5.0 4.9 3.9 3.3 2.8 2.2 1.3 0.0 -0.5 0.3 0.5 2.5 4.5 7.1 6.3 6.4 6.8 6.4 6.0 4.5 4.7 3.5 2.4 1.6 0.9 0.1 -1.9 0.1 -1.2 -1.4
6.9 7.8 8.7 9.4 8.6 6.7 3.8 2.9 4.2 5.3 4.4 3.7 3.5 4.2 4.3 3.4 3.0 3.4 2.6 2.7 1.7 0.7 0.5 1.1 1.6 1.1 0.4 -1.3 4.1 6.6 6.5 6.2 5.9 1.3 3.5 3.1 2.5 2.9 2.0 1.3 -1.0 -1.3 -2.1
5.2 4.8 5.7 7.5 6.4 5.0 3.4 2.8 3.3 4.2 4.4 3.8 3.2 3.1 3.5 3.8 2.5 3.4 3.5 2.3 2.2 1.7 1.3 1.8 1.8 1.7 0.8 -0.9 -2.0 -1.3 4.1 6.3 6.5 6.9 4.8 4.9 0.7 3.8 1.1 -3.0 -2.8 -1.6 -2.3
3.7 3.6 4.0 5.0 5.1 4.0 3.3 2.7 3.5 4.6 4.6 4.0 3.6 3.4 3.1 3.4 3.4 3.1 3.3 3.0 3.0 2.0 1.5 2.1 2.6 2.4 2.0 1.3 0.5 -1.9 -2.6 -1.1 3.4 0.5 3.7 4.5 -2.7 -0.3 -3.4 -3.5 -3.1 -2.5 -3.1
4.7 3.9 3.5 3.3 3.7 3.5 3.3 2.7 3.1 4.7 4.8 4.4 4.3 4.0 2.9 2.6 2.8 2.4 2.0 2.1 2.1 2.1 2.5 2.5 2.4 2.2 1.7 1.6 1.5 0.3 -0.7 0.0 1.9 -1.2 -2.3 0.9 -3.5 -4.0 -4.0 -4.7 -4.9 -4.3 -3.7
5.7 6.2 4.8 4.2 3.8 3.7 3.3 3.0 2.8 3.7 4.7 5.5 5.4 4.8 3.3 3.2 2.9 2.3 2.1 2.0 1.4 2.5 2.3 1.7 1.8 1.7 1.5 1.4 1.6 1.0 0.6 1.1 1.4 -0.7 -2.8 -0.9 -2.8 -2.8 -1.4 -4.8 -5.2 -5.3 -4.2
Wind_Speed
7 7 6 7 8 13 13 9 11 10 13 17 18 17 14 16 17 13 12 17 17 17 17 17 18 19 20 22 24 22 24 24 24 27 27 27 25 22 24 27 28 27 24
5 6 8 7 7 10 13 12 9 9 9 9 13 16 16 18 18 17 15 13 20 21 20 19 18 18 19 20 22 24 25 27 26 29 28 28 27 28 26 25 28 28 26
5 5 7 8 7 11 13 11 10 10 8 7 12 12 13 18 16 18 18 17 16 22 22 22 20 19 17 20 22 24 25 26 26 29 31 31 30 30 29 28 29 28 28
9 6 5 4 5 5 5 7 8 10 9 8 8 9 10 13 15 18 19 19 17 15 21 25 24 23 22 21 23 23 24 26 27 28 29 29 30 29 29 28 29 30 30
12 10 5 5 8 5 6 5 6 9 10 9 10 10 11 11 14 10 15 16 19 19 17 23 27 26 26 26 25 24 24 25 27 29 30 29 30 29 31 31 32 31 32
13 11 7 6 8 8 8 7 8 6 7 8 9 12 12 10 10 8 7 9 16 21 23 20 17 20 29 27 27 27 26 26 27 27 29 30 30 29 31 31 34 33 33
13 12 6 8 7 8 10 10 9 11 10 10 7 9 9 11 9 6 8 8 15 19 22 25 16 18 20 30 29 29 27 27 28 29 28 29 29 29 31 33 34 35 35
13 13 10 9 9 8 11 11 10 9 10 9 5 4 3 3 8 10 9 13 22 15 14 19 18 22 21 21 27 26 26 28 30 30 29 29 30 30 30 32 35 36 37
15 14 14 10 10 8 7 10 9 10 10 10 11 9 4 6 8 7 13 14 19 15 17 14 13 18 20 21 20 24 31 29 29 30 30 28 29 30 30 33 36 37 37
13 15 15 14 10 8 9 9 8 9 8 10 10 7 17 15 10 10 10 13 17 18 18 15 15 16 22 21 25 24 29 32 32 30 29 28 28 30 30 32 35 36 38
13 14 16 14 11 8 9 10 10 9 8 8 9 11 12 13 13 12 12 9 11 13 15 15 16 14 19 21 20 22 24 30 33 32 28 29 29 29 30 31 34 35 36
8 11 16 13 12 10 9 9 10 10 9 9 8 9 10 8 11 12 15 16 16 12 13 13 14 15 14 15 23 23 26 29 29 30 30 28 28 29 31 32 34 36 37
9 11 11 11 10 11 11 11 10 10 9 9 10 8 8 9 11 12 13 14 14 14 14 13 14 14 14 15 19 24 21 25 29 29 29 29 28 29 31 32 34 35 36
8 12 11 13 12 13 11 10 9 8 10 9 12 10 8 8 9 11 14 13 15 14 14 19 14 14 14 14 16 20 22 24 25 28 28 30 30 30 30 31 32 33 36
8 10 12 12 12 12 11 12 9 11 11 11 12 11 9 8 9 10 11 14 13 15 16 15 10 13 12 13 13 18 19 21 26 27 29 30 30 30 31 31 30 32 35
10 10 11 11 13 13 13 12 10 10 12 9 8 12 10 9 8 10 11 13 15 15 16 12 13 9 13 14 14 16 19 19 24 26 26 27 28 29 30 30 30 30 33
10 10 12 12 13 14 14 12 12 13 13 12 12 11 12 13 9 8 9 10 14 11 16 14 12 15 17 14 15 11 14 16 15 23 25 27 26 26 28 29 29 29 30
10 12 13 13 15 15 14 13 14 13 13 14 14 13 14 11 13 11 8 11 10 12 11 15 13 14 17 17 16 15 11 12 15 16 25 27 27 27 27 28 29 29 28
12 13 14 15 16 16 16 14 13 13 13 13 13 13 14 15 13 11 11 10 9 9 10 11 11 9 10 10 14 15 12 14 11 12 19 22 23 26 27 28 28 29 30
12 13 13 14 16 17 17 15 14 14 14 14 13 13 15 18 16 15 12 12 11 10 10 9 10 11 11 11 13 12 8 8 9 8 9 12 17 22 24 24 27 28 28
12 13 13 15 15 17 14 17 14 15 16 16 16 16 15 22 26 20 11 12 12 10 9 9 8 10 10 8 11 10 12 10 11 10 9 8 8 9 11 18 20 25 25
13 13 14 15 17 14 26 23 17 13 15 16 17 17 16 22 23 21 22 20 16 13 12 7 7 9 11 10 13 11 12 11 10 5 11 10 8 9 10 9 17 17 24
12 13 14 14 16 19 29 24 20 13 13 15 16 17 16 15 23 17 17 18 18 20 18 11 12 11 12 11 12 13 13 12 12 9 11 10 4 10 3 3 10 17 18
11 11 13 14 14 15 27 26 18 12 11 13 14 17 17 17 21 20 17 15 13 13 13 10 10 11 11 13 12 12 15 14 6 1 8 8 3 4 2 2 4 8 11
10 12 12 14 16 15 27 27 17 11 11 13 13 15 18 18 28 29 18 17 15 15 18 21 18 20 22 23 20 11 8 9 3 3 2 4 3 2 2 2 3 4 6
10 9 12 13 17 16 26 27 21 10 12 11 12 14 25 22 28 29 18 17 16 17 16 17 15 17 16 16 21 12 9 8 6 3 6 2 4 4 2 2 3 2 3
Wind_Direction
238 231 218 214 235 236 240 241 236 231 231 230 231 235 233 233 242 238 235 182 205 212 222 228 238 230 232 226 224 217 218 210 198 192 195 200 201 203 205 196 180 181 182
234 228 231 220 223 233 243 233 233 249 240 230 239 239 239 239 234 238 237 210 206 210 215 225 230 240 238 232 220 215 214 215 203 201 198 201 203 204 204 200 185 182 186
358 296 248 231 232 227 230 234 249 249 242 226 229 227 236 245 245 242 238 240 208 213 214 218 225 230 241 231 225 222 219 219 209 205 204 202 207 207 203 204 191 185 185
355 330 307 291 317 301 307 252 237 235 225 225 227 229 221 230 239 238 238 241 245 231 207 217 221 222 226 232 225 219 223 225 222 210 210 207 205 206 203 203 195 190 186
353 330 294 283 295 272 265 269 290 253 242 226 227 220 223 220 224 221 233 238 244 246 232 207 212 224 222 221 221 217 217 223 220 217 216 210 209 204 201 199 197 193 189
352 333 313 314 304 290 270 253 254 268 269 253 239 230 219 220 229 230 240 245 251 249 246 235 202 217 225 221 219 218 214 215 219 218 215 216 211 206 203 200 198 196 195
0 340 331 322 317 303 303 299 285 276 263 261 261 251 232 216 194 168 181 255 272 254 241 237 219 234 223 221 221 217 219 219 217 215 214 214 212 210 205 200 198 198 198
1 355 350 340 332 323 314 308 299 287 273 268 243 252 271 241 247 242 235 223 244 244 250 251 221 228 230 235 220 212 214 220 219 214 208 209 210 211 207 200 197 200 199
4 358 352 346 334 332 319 311 307 305 287 268 274 245 219 248 247 219 228 223 232 236 240 241 240 226 227 234 232 206 209 213 216 216 210 207 206 211 210 203 200 203 202
1 1 351 342 332 331 322 321 317 308 293 283 273 265 268 277 257 245 216 219 228 230 232 235 234 233 228 226 231 229 199 207 210 215 212 211 207 204 208 207 203 204 205
359 359 346 338 327 326 323 318 314 311 307 291 276 284 287 270 267 262 262 228 233 233 230 229 236 241 233 227 231 229 213 204 208 210 209 209 207 207 206 206 206 206 207
356 350 343 331 327 326 325 317 306 300 295 288 288 279 276 279 272 261 256 254 256 243 239 240 233 233 242 235 230 235 205 203 206 208 208 207 207 206 204 205 207 208 209
348 348 339 338 331 330 326 314 308 301 296 290 286 282 278 271 270 275 284 274 257 250 248 246 237 242 238 236 237 217 211 203 203 207 203 203 204 205 208 209 210 211 212
341 348 345 336 336 333 326 319 311 307 302 297 291 287 291 279 271 273 264 269 271 263 256 238 239 236 244 244 234 210 228 200 205 209 207 204 204 204 205 207 210 210 210
355 353 347 345 348 340 337 333 327 325 321 313 305 295 291 281 280 271 266 267 262 259 253 253 241 239 248 242 239 232 232 215 205 210 210 208 205 202 204 203 205 208 209
9 4 357 359 359 355 351 347 341 336 336 330 317 317 301 292 292 294 254 260 252 258 263 256 258 272 256 242 239 225 232 232 205 210 215 214 210 202 205 204 202 206 210
17 14 15 8 10 6 6 3 0 1 352 351 348 340 339 339 330 319 319 267 263 253 256 254 262 262 270 264 259 235 237 238 232 207 211 212 209 207 206 205 205 205 211
24 25 22 18 17 16 15 13 12 5 8 5 359 1 359 348 340 335 326 313 330 273 257 264 261 263 258 264 258 248 227 234 239 206 205 211 210 208 206 207 209 209 211
27 26 25 22 19 19 18 17 18 16 15 12 8 6 0 354 350 341 335 334 327 320 320 257 245 246 253 253 254 252 242 233 234 227 202 206 210 211 210 206 208 210 214
29 30 27 26 24 22 19 13 20 23 25 20 15 11 6 2 357 352 347 355 347 336 330 310 301 259 250 247 245 247 235 227 228 222 210 212 209 213 212 209 210 212 212
29 28 28 29 28 28 19 13 17 23 24 21 21 14 13 8 5 7 4 2 2 356 347 333 314 328 264 232 238 233 237 234 234 223 215 213 206 210 215 214 218 213 213
32 29 28 28 28 27 19 18 14 23 26 23 19 14 13 13 4 7 11 16 21 12 6 341 351 344 320 342 323 255 230 227 229 206 211 220 201 217 211 204 207 209 211
35 32 30 28 30 25 18 18 18 24 26 23 20 14 10 10 10 3 7 8 15 20 22 3 352 354 328 340 320 309 287 221 230 217 201 222 184 220 206 137 185 200 199
37 37 30 26 30 23 19 17 12 26 20 27 22 19 14 10 12 6 9 9 8 9 10 8 0 346 340 331 324 305 287 291 254 60 189 211 184 203 151 133 192 205 192
36 36 35 29 24 26 20 20 17 21 16 27 23 24 17 14 11 12 12 8 5 5 359 1 0 359 354 348 347 339 350 321 243 216 200 155 189 132 170 192 161 180 215
40 37 37 31 27 22 19 23 19 18 20 19 22 20 21 18 16 16 16 10 8 357 357 354 356 360 358 351 349 354 338 335 307 351 10 295 152 149 208 175 179 175 165